Weather History for Philip, SD

Change the Weather History Date:

Sunday, January 5, 2014

  Actual Average Record
Temperature  
Mean Temperature -1 °F 21 °F  
Max Temperature 7 °F 34 °F 74 °F (2012)
Min Temperature -10 °F 9 °F -29 °F (1988)
Degree Days  
Heating Degree Days 66 44  
Month to date heating degree days 261 220  
Since 1 July heating degree days 3284 3155  
Cooling Degree Days 0 0  
Month to date cooling degree days 0 0  
Year to date cooling degree days 0 0  
Moisture  
Dew Point -14 °F    
Average Humidity 63    
Maximum Humidity 79    
Minimum Humidity 47    
Precipitation  
Precipitation T in 0.01 in 0.15 in (1949)
Month to date precipitation 0.06 0.05  
Year to date precipitation 0.06 0.05  
Sea Level Pressure  
Sea Level Pressure 30.57 in    
Wind  
Wind Speed 20 mph (NW)    
Max Wind Speed 37 mph    
Max Gust Speed 43 mph    
Visibility 8 miles    
Events Snow    
T = Trace of Precipitation, MM = Missing Value Source: NWS Daily Summary

Daily Weather History Graph

Daily Weather History Graph

Search for Another Location

Airport:

Trip Planner

Search our weather history database for the weather conditions in past years. The results will help you decide how hot, cold, wet, or windy it might be!

Date:

Astronomy

Jan. 05, 2014 Rise Set
Actual Time 7:21 AM MST 4:22 PM MST
Civil Twilight 6:48 AM MST 4:55 PM MST
Nautical Twilight 6:12 AM MST 5:31 PM MST
Astronomical Twilight 5:37 AM MST 6:06 PM MST
Moon 9:52 AM MST (1/5) 10:05 PM MST (1/5)
Length of Visible Light 10h 07m
Length of Day
9h 01m
Waxing Crescent, 25% of the Moon is Illuminated
Jan 5
Waxing Crescent
Jan 7
First Quarter
Jan 15
Full
Jan 23
Last Quarter
Jan 30
New

Hourly Weather History & Observations

Time (MST) Temp. Windchill Dew Point Humidity Pressure Visibility Wind Dir Wind Speed Gust Speed Precip Events Conditions
12:55 AM 5.0 °F -2.1 °F -2.9 °F 70% 30.43 in 10.0 mi NW 3.5 mph - N/A   Overcast
1:55 AM 5.0 °F -6.9 °F -2.9 °F 70% 30.43 in 10.0 mi WNW 6.9 mph - N/A   Overcast
2:55 AM 6.1 °F -11.6 °F -2.9 °F 67% 30.44 in 10.0 mi NNW 15.0 mph 21.9 mph N/A   Mostly Cloudy
3:55 AM 5.0 °F -13.6 °F -6.0 °F 61% 30.46 in 10.0 mi NNW 16.1 mph - N/A   Clear
4:55 AM 3.9 °F -8.2 °F -6.0 °F 64% 30.48 in 10.0 mi NNW 6.9 mph - N/A   Mostly Cloudy
5:55 AM 3.0 °F -9.3 °F -6.0 °F 66% 30.51 in 10.0 mi NNW 6.9 mph - N/A   Overcast
6:41 AM 1.4 °F -15.3 °F -5.8 °F 72% 30.39 in 2.5 mi North 11.5 mph - 0.00 in Snow Light Snow
6:55 AM 1.9 °F -15.5 °F -6.0 °F 69% 30.54 in 2.5 mi NNW 12.7 mph - 0.00 in Snow Light Snow
7:04 AM 1.4 °F -15.3 °F -5.8 °F 72% 30.40 in 3.0 mi NNW 11.5 mph - 0.00 in Snow Light Snow
7:31 AM 1.4 °F -16.9 °F -5.8 °F 72% 30.41 in 4.0 mi North 13.8 mph - 0.00 in Snow Light Snow
7:39 AM 1.4 °F -13.5 °F -5.8 °F 72% 30.41 in 3.0 mi NW 9.2 mph - 0.00 in Snow Light Snow
7:47 AM 1.4 °F -18.2 °F -5.8 °F 72% 30.41 in 2.5 mi NW 16.1 mph 20.7 mph 0.00 in Snow Light Snow
7:55 AM 1.9 °F -21.2 °F -7.1 °F 66% 30.58 in 9.0 mi NNW 24.2 mph 29.9 mph 0.00 in   Overcast
8:04 AM 1.4 °F -23.2 °F -11.2 °F 56% 30.43 in 10.0 mi NNW 27.6 mph 34.5 mph N/A   Overcast
8:55 AM 1.9 °F -20.2 °F -9.9 °F 58% 30.60 in 10.0 mi NW 21.9 mph 27.6 mph N/A   Overcast
9:55 AM 1.0 °F -25.5 °F -14.1 °F 49% 30.64 in 10.0 mi NW 33.4 mph 41.4 mph N/A   Mostly Cloudy
10:22 AM -2.2 °F -28.4 °F -11.2 °F 66% 30.51 in 10.0 mi North 28.8 mph 35.7 mph N/A   Overcast
10:45 AM -2.2 °F -28.4 °F -14.8 °F 55% 30.52 in 10.0 mi NNW 28.8 mph 34.5 mph N/A   Overcast
10:55 AM -2.9 °F -29.0 °F -14.1 °F 59% 30.69 in 10.0 mi NNW 27.6 mph 34.5 mph N/A   Overcast
11:26 AM -5.8 °F -32.4 °F -14.8 °F 65% 30.53 in 3.0 mi NNW 26.5 mph 35.7 mph N/A   Haze
11:52 AM -5.8 °F -31.0 °F -16.6 °F 60% 30.54 in 10.0 mi NNW 23.0 mph 32.2 mph N/A   Overcast
11:55 AM -5.1 °F -32.3 °F -17.0 °F 57% 30.71 in 10.0 mi NNW 28.8 mph 34.5 mph N/A   Overcast
12:55 PM -7.1 °F -33.7 °F -18.0 °F 59% 30.71 in 9.0 mi NNW 25.3 mph 29.9 mph 0.00 in   Overcast
1:04 PM -7.6 °F -34.4 °F -16.6 °F 65% 30.53 in 2.5 mi NNW 25.3 mph 33.4 mph 0.00 in Snow Light Snow
1:25 PM -5.8 °F -32.9 °F -16.6 °F 60% 30.53 in 5.0 mi NW 27.6 mph 34.5 mph 0.00 in   Haze
1:36 PM -5.8 °F -35.6 °F -22.0 °F 46% 30.53 in 10.0 mi NW 35.7 mph 42.6 mph 0.00 in   Mostly Cloudy
1:55 PM -6.0 °F -35.1 °F -20.9 °F 49% 30.71 in 10.0 mi NW 33.4 mph 41.4 mph 0.00 in   Partly Cloudy
2:55 PM -7.1 °F -35.0 °F -20.9 °F 51% 30.72 in 10.0 mi NW 28.8 mph 35.7 mph N/A   Overcast
3:34 PM -7.6 °F -34.4 °F -18.4 °F 59% 30.55 in 8.0 mi NW 25.3 mph 31.1 mph N/A   Overcast
3:52 PM -7.6 °F -34.8 °F -16.6 °F 65% 30.56 in 1.8 mi WNW 26.5 mph 34.5 mph 0.00 in Snow Light Snow
3:55 PM -8.0 °F -35.3 °F -17.0 °F 65% 30.73 in 1.8 mi WNW 26.5 mph 34.5 mph 0.00 in Snow Light Snow
4:00 PM -7.6 °F -34.8 °F -18.4 °F 59% 30.56 in 3.0 mi WNW 26.5 mph 34.5 mph 0.00 in Snow Light Snow
4:53 PM -9.4 °F -37.7 °F -20.2 °F 59% 30.56 in 10.0 mi WNW 27.6 mph 35.7 mph 0.00 in   Partly Cloudy
4:55 PM -9.9 °F -36.5 °F -22.0 °F 55% 30.75 in 10.0 mi NW 23.0 mph 34.5 mph 0.00 in   Partly Cloudy
5:55 PM -9.9 °F -36.0 °F -22.0 °F 55% 30.76 in 10.0 mi WNW 21.9 mph 32.2 mph N/A   Partly Cloudy
6:55 PM -9.9 °F -37.0 °F -20.9 °F 59% 30.74 in 10.0 mi NW 24.2 mph 34.5 mph N/A   Clear
7:55 PM -9.9 °F -33.5 °F -22.0 °F 55% 30.72 in 10.0 mi NW 17.3 mph 27.6 mph N/A   Clear
8:55 PM -9.0 °F -35.3 °F -20.9 °F 56% 30.70 in 10.0 mi WNW 23.0 mph 31.1 mph N/A   Scattered Clouds
9:55 PM -9.0 °F -34.2 °F -20.0 °F 59% 30.68 in 10.0 mi NW 20.7 mph 31.1 mph N/A   Partly Cloudy
10:55 PM -8.0 °F -32.2 °F -20.0 °F 56% 30.66 in 10.0 mi WNW 19.6 mph 28.8 mph N/A   Clear
11:55 PM -8.0 °F -32.2 °F -20.0 °F 56% 30.65 in 10.0 mi NW 19.6 mph 28.8 mph N/A   Clear